Zurück zum Katalog

FENGYUN 1C DEB

AktivSSO
NORAD 30735·DEBRIS·🇨🇳 China

Gestartet May 10, 1999 von Taiyuan Satellite Launch Center

Loading…

Nächste Überflüge (nächste 24 Stunden)

TLE

AktuellSource: Space-Track

Epoche: Sep 13, 2026, 22:19 UTC

1 30735U 99025ASV 26256.93008964  .00001836  00000-0  78023-3 0  9994
2 30735  98.7478 332.2320 0060076 167.0158 250.6133 14.25534454  6604

Verfolge FENGYUN 1C DEB in Echtzeit mit AllMySat

Download on the App Store